[[{"header":{"parameterUnit":"m.s-1","parameterCategory":2,"la1":30.2991,"la2":30.254,"lo1":-89.0895,"lo2":-89.0444,"dy":0.0017,"dx":0.0017,"nx":28,"ny":28,"refTime":"2024-04-01T03:00:00:Z","depth":"0","parameterNumber":2,"parameterNumberName":"U-component_of_CURRENTS"},"data":[0,0,0,0,0,0,0,0,0,0,0,0,0,0,0,0,0,0,0,0,0,0,0,0,0,0,0,0,0,0,0,0,0,0,0,0,0,0,0,0,0,0,0,0,0,0,0,0,0,0,0,0,0,0,0,0,0,0,-0.2942,-0.2942,0,-0.2985,-0.2985,-0.2986,-0.2982,-0.2982,-0.2982,-0.2981,-0.2973,-0.2973,-0.2973,0,0,0,0,0,0,0,0,0,0,0,0,0,-0.2839,-0.2841,-0.2942,-0.2942,-0.2943,-0.2985,-0.2985,-0.2986,-0.2982,-0.2982,-0.2982,-0.2981,-0.2973,-0.2973,-0.2973,0,0,0,0,0,0,0,0,0,0,0,0,0,-0.288,-0.2841,-0.2941,-0.2949,-0.295,-0.2985,-0.2985,-0.2986,-0.2982,-0.2982,-0.2981,-0.2981,-0.2973,-0.2973,-0.2973,-0.2985,0,0,-0.2974,-0.2974,0,0,0,0,0,0,0,0,-0.2878,-0.2883,-0.2947,-0.2949,-0.295,-0.2981,-0.2946,-0.2984,-0.2983,-0.2967,-0.2981,-0.2981,-0.2974,-0.2974,-0.2979,-0.2984,-0.2984,-0.2974,-0.2974,-0.2974,-0.2974,0,0,0,0,0,0,0,-0.2875,-0.2881,-0.2955,-0.2948,-0.295,-0.2945,-0.295,-0.2953,-0.2969,-0.2968,-0.2969,-0.2979,-0.2973,-0.2979,-0.2979,-0.2984,-0.2974,-0.2974,-0.2974,-0.2974,-0.2991,-0.2991,0,0,0,0,0,0,-0.2878,-0.2879,-0.2954,-0.2957,-0.2916,-0.2948,-0.2953,-0.2969,-0.297,-0.2971,-0.298,-0.2979,-0.2979,-0.2978,-0.2978,-0.2993,-0.2974,-0.2974,-0.2974,-0.299,-0.2991,-0.2991,0,0,0,0,0,0,-0.2876,-0.2885,-0.2952,-0.2921,-0.293,-0.295,-0.2968,-0.297,-0.2975,-0.298,-0.2979,-0.2983,-0.2978,-0.2978,-0.2982,-0.2992,-0.2974,-0.2974,-0.299,-0.299,-0.2991,-0.3021,0,0,0,0,0,0,-0.2873,-0.2884,-0.289,-0.2922,-0.2932,-0.2977,-0.2969,-0.2971,-0.2984,-0.2983,-0.2983,-0.2981,-0.2978,-0.2982,-0.2982,-0.2992,-0.2975,-0.299,-0.299,-0.2991,-0.302,-0.3023,-0.3025,0,0,0,0,0,-0.2869,-0.2885,-0.289,-0.2899,-0.2943,-0.2978,-0.2983,-0.2993,-0.2985,-0.2993,-0.2988,-0.2981,-0.2986,-0.2983,-0.2983,-0.2993,-0.2989,-0.299,-0.2991,-0.3019,-0.3022,-0.3025,0,0,0,0,0,0,-0.284,-0.2887,-0.2894,-0.2922,-0.295,-0.2979,-0.2987,-0.2994,-0.2998,-0.2993,-0.2988,-0.2987,-0.2995,-0.2989,-0.2985,-0.2999,-0.2986,-0.2987,-0.3007,-0.301,-0.3013,-0.3009,-0.2975,0,0,0,0,0,-0.284,-0.2861,-0.2904,-0.2923,-0.2939,-0.2961,-0.2974,-0.2986,-0.2999,-0.3,-0.3,-0.2996,-0.3,-0.3,-0.3002,-0.301,-0.2989,-0.3016,-0.3019,-0.3021,-0.3018,-0.2995,-0.2995,-0.2994,-0.2994,-0.2994,0,0,-0.283,-0.286,-0.287,-0.2917,-0.2935,-0.2967,-0.2967,-0.2993,-0.3012,-0.2998,-0.3011,-0.3008,-0.3005,-0.3015,-0.3018,-0.301,-0.3011,-0.3022,-0.3024,-0.3019,-0.2996,-0.2996,-0.2996,-0.2994,-0.2994,-0.2994,0,0,-0.2828,-0.2852,-0.2873,-0.2905,-0.2946,-0.2966,-0.2976,-0.3009,-0.3016,-0.3035,-0.3027,-0.3027,-0.3035,-0.3034,-0.3034,-0.3052,-0.3027,-0.3053,-0.3064,-0.3042,-0.3042,-0.3041,-0.3015,-0.3012,-0.3053,-0.3053,-0.3053,0,-0.2812,-0.285,-0.2882,-0.2918,-0.2941,-0.2968,-0.2995,-0.3016,-0.3043,-0.3045,-0.3041,-0.3044,-0.3043,-0.305,-0.3059,-0.3058,-0.3038,-0.3053,-0.3045,-0.3044,-0.3043,-0.3016,-0.3012,-0.3055,-0.3054,-0.3054,-0.3054,0,-0.2836,-0.2865,-0.2881,-0.2934,-0.2964,-0.2991,-0.3034,-0.3052,-0.3059,-0.3072,-0.3078,-0.3075,-0.3072,-0.3077,-0.3075,-0.3072,-0.3058,-0.3052,-0.3036,-0.3045,-0.3016,-0.3011,-0.3057,-0.3056,-0.3056,-0.3055,0,0,-0.2788,-0.2878,-0.2879,-0.2907,-0.2974,-0.2998,-0.3037,-0.307,-0.3084,-0.3098,-0.3105,-0.3111,-0.31,-0.3099,-0.3094,-0.308,-0.3061,-0.3065,-0.3063,-0.3038,-0.3005,-0.292,-0.2907,-0.3052,-0.3052,-0.3051,-0.2988,0,-0.2786,-0.2847,-0.2894,-0.294,-0.2972,-0.3018,-0.3052,-0.3087,-0.3104,-0.3121,-0.3116,-0.3122,-0.3113,-0.3109,-0.3095,-0.3079,-0.305,-0.3078,-0.3001,-0.2999,-0.2921,-0.2899,-0.279,-0.2718,-0.2984,-0.2983,-0.2982,0,-0.2783,-0.2828,-0.2872,-0.2945,-0.2961,-0.2991,-0.3036,-0.3072,-0.311,-0.3124,-0.3126,-0.3129,-0.3125,-0.3109,-0.3067,-0.3085,-0.3041,-0.3018,-0.3015,-0.292,-0.2904,-0.2752,-0.2699,-0.2671,-0.2975,-0.2975,-0.2976,0,-0.272,-0.2803,-0.2831,-0.286,-0.2951,-0.2967,-0.3004,-0.3056,-0.3077,-0.3115,-0.3124,-0.3128,-0.3117,-0.3083,-0.3042,-0.3053,-0.2982,-0.2991,-0.2864,-0.2858,-0.2741,-0.2725,-0.2647,-0.2931,-0.2931,-0.2931,-0.2931,0,-0.2693,-0.2712,-0.2802,-0.282,-0.2845,-0.2926,-0.2947,-0.2991,-0.3046,-0.3061,-0.3107,-0.3106,-0.3106,-0.3073,-0.3038,-0.2931,-0.2971,-0.2852,-0.2829,-0.2748,-0.2734,-0.2684,-0.2717,-0.2929,-0.2929,-0.293,-0.293,0,-0.2605,-0.2672,-0.2705,-0.2793,-0.2815,-0.2825,-0.2902,-0.292,-0.2989,-0.301,-0.302,-0.3074,-0.3033,-0.3012,-0.2954,-0.2901,-0.2773,-0.2773,-0.2675,-0.2642,-0.2495,-0.2534,-0.2438,-0.2369,-0.2627,-0.2625,-0.2623,0,-0.2561,-0.2572,-0.2651,-0.2662,-0.2692,-0.2732,-0.2758,-0.286,-0.289,-0.2976,-0.2976,-0.297,-0.293,-0.283,-0.2744,-0.2642,-0.2648,-0.2487,-0.2482,-0.2452,-0.2482,-0.2515,-0.2468,-0.2345,-0.234,-0.2337,-0.2334,0,-0.2458,-0.2484,-0.2507,-0.2539,-0.2565,-0.2596,-0.2649,-0.2672,-0.2788,-0.281,-0.2826,-0.2805,-0.2735,-0.2592,-0.2479,-0.2413,-0.243,-0.2409,-0.2402,-0.2262,-0.2271,-0.2204,-0.2434,-0.2303,-0.2306,-0.2308,-0.231,-0.2311,-0.2349,-0.2339,-0.2373,-0.2383,-0.2417,-0.2427,-0.2405,-0.2484,-0.25,-0.2511,-0.2602,-0.253,-0.2481,-0.2302,-0.2234,-0.2088,-0.2169,-0.2034,-0.2088,-0.2127,-0.2043,-0.2197,-0.2029,-0.2031,-0.2032,-0.2033,-0.2034,0,-0.2205,-0.2212,-0.2217,-0.2223,-0.2193,-0.2266,-0.23,-0.2259,-0.2226,-0.2275,-0.2249,-0.2195,-0.2055,-0.2024,-0.1899,-0.1807,-0.1774,-0.1776,-0.181,-0.1777,-0.1911,-0.188,-0.1643,-0.1644,-0.1644,-0.1644,-0.1644,-0.1644,-0.2129,-0.2079,-0.2085,-0.1985,-0.1987,-0.1904,-0.1886,-0.1859,-0.1867,-0.179,-0.1785,-0.1818,-0.183,-0.1934,-0.1792,-0.1697,-0.167,-0.1614,-0.165,-0.1772,-0.1801,-0.1829,-0.1804,-0.1556,-0.1556,-0.1437,-0.1437,-0.1436]},{"header":{"parameterUnit":"m.s-1","parameterCategory":2,"la1":30.2991,"la2":30.254,"lo1":-89.0895,"lo2":-89.0444,"dy":0.0017,"dx":0.0017,"nx":28,"ny":28,"refTime":"2024-04-01T03:00:00:Z","depth":"0","parameterNumber":3,"parameterNumberName":"V-component_of_CURRENTS"},"data":[0,0,0,0,0,0,0,0,0,0,0,0,0,0,0,0,0,0,0,0,0,0,0,0,0,0,0,0,0,0,0,0,0,0,0,0,0,0,0,0,0,0,0,0,0,0,0,0,0,0,0,0,0,0,0,0,0,0,-0.0159,-0.0158,0,-0.0059,-0.0058,-0.0057,0.0018,0.0019,0.0019,0.002,0.016,0.0163,0.0166,0,0,0,0,0,0,0,0,0,0,0,0,0,-0.0223,-0.0222,-0.016,-0.0158,-0.0157,-0.0059,-0.0058,-0.0056,0.0018,0.0019,0.0019,0.002,0.0159,0.0163,0.0167,0,0,0,0,0,0,0,0,0,0,0,0,0,-0.0165,-0.0222,-0.016,-0.0109,-0.0104,-0.006,-0.0058,-0.0056,0.0018,0.0019,0.002,0.002,0.0158,0.0163,0.0167,0.0181,0,0,0.0182,0.0184,0,0,0,0,0,0,0,0,-0.0169,-0.0163,-0.0118,-0.0113,-0.0107,-0.0033,-0.0029,0.0025,0.0018,-0.0027,0.002,0.0021,0.0098,0.0107,0.0126,0.0187,0.0193,0.0183,0.0185,0.0188,0.0189,0,0,0,0,0,0,0,-0.0173,-0.0166,-0.0118,-0.0117,-0.011,-0.007,-0.0061,-0.0018,0.0031,-0.0023,-0.0018,-0.0009,0.0101,0.0121,0.013,0.0196,0.0182,0.0187,0.019,0.0192,0.0291,0.0291,0,0,0,0,0,0,-0.0192,-0.0171,-0.0122,-0.0116,-0.0138,-0.007,-0.006,-0.0057,0.003,0.0043,-0.001,-0.0006,0.0112,0.0124,0.0135,0.0163,0.0187,0.0192,0.0195,0.0292,0.0291,0.0291,0,0,0,0,0,0,-0.0194,-0.0189,-0.0126,-0.0141,-0.0131,-0.007,-0.0066,-0.0055,-0.0034,0.004,0.0054,-0.0001,0.0113,0.0128,0.0172,0.0169,0.0194,0.0199,0.0292,0.0292,0.0291,0.0214,0,0,0,0,0,0,-0.0196,-0.019,-0.0198,-0.0143,-0.0131,-0.0109,-0.0067,-0.0054,-0.0031,-0.0025,0.0052,0.0066,0.0115,0.0164,0.0176,0.0176,0.0202,0.0292,0.0292,0.0291,0.0217,0.0211,0.0206,0,0,0,0,0,-0.0199,-0.0214,-0.0199,-0.0193,-0.0142,-0.0109,-0.01,-0.0052,-0.0032,-0.0029,0.0025,0.0064,0.017,0.0168,0.0182,0.0183,0.0293,0.0292,0.0291,0.0219,0.0212,0.0206,0,0,0,0,0,0,-0.0247,-0.0206,-0.0189,-0.0191,-0.0158,-0.0097,-0.0093,-0.006,-0.0016,-0.001,0.0061,0.0079,0.0115,0.0157,0.0153,0.021,0.0237,0.0239,0.0177,0.0171,0.0166,0.0151,0.0206,0,0,0,0,0,-0.0263,-0.0263,-0.0216,-0.0219,-0.0206,-0.0152,-0.0134,-0.0102,-0.0055,-0.0035,0.0019,0.0075,0.0123,0.0153,0.0198,0.0229,0.0278,0.0239,0.0234,0.0229,0.0227,0.0292,0.0293,0.0289,0.0289,0.0289,0,0,-0.0281,-0.0261,-0.026,-0.0229,-0.02,-0.019,-0.0139,-0.0119,-0.0105,-0.0027,0.0004,0.0056,0.0126,0.0161,0.0182,0.0198,0.0255,0.0228,0.0223,0.0224,0.0292,0.0292,0.0293,0.0289,0.0289,0.0289,0,0,-0.0325,-0.0303,-0.0319,-0.0295,-0.026,-0.0224,-0.0223,-0.0168,-0.0138,-0.0104,-0.0044,0.0005,0.0074,0.0128,0.0164,0.0156,0.022,0.0167,0.0135,0.0198,0.0199,0.02,0.0259,0.0266,0.0169,0.0169,0.0169,0,-0.0351,-0.0364,-0.0319,-0.0325,-0.0312,-0.0246,-0.0255,-0.0215,-0.0152,-0.0129,-0.0106,0.0004,0.0061,0.0118,0.0116,0.0144,0.0188,0.0152,0.0191,0.0193,0.0196,0.0256,0.0265,0.0165,0.0166,0.0166,0.0166,0,-0.0402,-0.041,-0.0418,-0.0403,-0.0381,-0.0379,-0.0319,-0.0294,-0.025,-0.0202,-0.0142,-0.006,0.0008,0.0032,0.0074,0.0121,0.0147,0.0171,0.0204,0.0191,0.0256,0.0266,0.016,0.0161,0.0162,0.0163,0,0,-0.0463,-0.0458,-0.046,-0.047,-0.0423,-0.0412,-0.0386,-0.0342,-0.0323,-0.0252,-0.0216,-0.0129,-0.0077,-0.0033,0.0031,0.0089,0.0146,0.0131,0.0136,0.0183,0.0284,0.0343,0.0361,0.0175,0.0176,0.0178,0.0319,0,-0.0519,-0.0562,-0.0531,-0.0557,-0.0572,-0.0503,-0.0484,-0.0429,-0.0368,-0.0315,-0.0215,-0.0158,-0.0102,-0.007,-0.0003,0.0113,0.0171,0.0105,0.0294,0.03,0.035,0.0374,0.041,0.0543,0.033,0.0332,0.0334,0,-0.0577,-0.06,-0.0644,-0.064,-0.0638,-0.0634,-0.0587,-0.0561,-0.0461,-0.0411,-0.0327,-0.0242,-0.0136,-0.0095,0.0095,0.005,0.0153,0.0241,0.025,0.034,0.0379,0.0524,0.0572,0.0732,0.0351,0.035,0.0348,0,-0.065,-0.0675,-0.0717,-0.0714,-0.0696,-0.0694,-0.0675,-0.0594,-0.0569,-0.0469,-0.0429,-0.0292,-0.0214,-0.007,0.0124,0.0108,0.0336,0.0341,0.0491,0.0497,0.0584,0.0595,0.0806,0.0463,0.0463,0.0463,0.0462,0,-0.0722,-0.0754,-0.0758,-0.0782,-0.082,-0.0771,-0.0779,-0.0734,-0.0657,-0.0617,-0.0487,-0.0411,-0.0205,-0.0041,0.0115,0.0353,0.0338,0.0497,0.0543,0.0558,0.0564,0.0753,0.0806,0.0468,0.0467,0.0466,0.0465,0,-0.0794,-0.0797,-0.0849,-0.0856,-0.086,-0.0886,-0.0862,-0.0859,-0.0774,-0.0715,-0.0684,-0.049,-0.0265,-0.0045,0.0214,0.0351,0.0674,0.0642,0.0646,0.069,0.0961,0.1006,0.1256,0.1367,0.0824,0.0827,0.0829,0,-0.0836,-0.0872,-0.0916,-0.0951,-0.096,-0.0984,-0.0995,-0.0931,-0.0909,-0.0748,-0.0718,-0.0493,-0.0299,0.011,0.0392,0.0692,0.0802,0.0878,0.0854,0.0999,0.1084,0.1109,0.1185,0.094,0.0943,0.0945,0.0947,0,-0.0911,-0.0924,-0.0967,-0.1046,-0.1081,-0.1113,-0.1113,-0.1108,-0.1005,-0.091,-0.0728,-0.0556,-0.0147,0.0239,0.0618,0.0784,0.1005,0.0933,0.1094,0.1207,0.1239,0.1359,0.0816,0.0967,0.0965,0.0964,0.0963,0.0962,-0.0955,-0.1009,-0.1064,-0.1131,-0.1179,-0.1212,-0.1213,-0.1162,-0.1091,-0.0885,-0.0742,-0.0418,0.0096,0.0656,0.0865,0.1263,0.1204,0.1358,0.1405,0.142,0.1521,0.102,0.1213,0.1212,0.1212,0.1211,0.1211,0,-0.1008,-0.1066,-0.1143,-0.1216,-0.1269,-0.1271,-0.1263,-0.1194,-0.107,-0.084,-0.0609,-0.0025,0.0485,0.0948,0.1503,0.1722,0.1766,0.1809,0.1855,0.1914,0.1493,0.1492,0.1742,0.1742,0.1742,0.1741,0.1741,0.1741,-0.1037,-0.1123,-0.1166,-0.1265,-0.131,-0.1325,-0.1305,-0.1137,-0.0947,-0.0512,-0.0153,0.012,0.0722,0.1586,0.2096,0.2134,0.2327,0.2293,0.2406,0.2105,0.2066,0.2028,0.2043,0.2405,0.2406,0.2818,0.2822,0.2825]}],[{"header":{"parameterUnit":"m.s-1","parameterCategory":2,"la1":30.2991,"la2":30.254,"lo1":-89.0895,"lo2":-89.0444,"dy":0.0017,"dx":0.0017,"nx":28,"ny":28,"refTime":"2024-04-01T03:00:00:Z","depth":"2","parameterNumber":2,"parameterNumberName":"U-component_of_CURRENTS"},"data":[0,0,0,0,0,0,0,0,0,0,0,0,0,0,0,0,0,0,0,0,0,0,0,0,0,0,0,0,0,0,0,0,0,0,0,0,0,0,0,0,0,0,0,0,0,0,0,0,0,0,0,0,0,0,0,0,0,0,-0.2569,-0.257,0,-0.2615,-0.2615,-0.2615,-0.2616,-0.2616,-0.2616,-0.2615,-0.2629,-0.263,-0.263,0,0,0,0,0,0,0,0,0,0,0,0,0,-0.2472,-0.2474,-0.2569,-0.257,-0.2571,-0.2615,-0.2615,-0.2615,-0.2616,-0.2616,-0.2616,-0.2615,-0.2629,-0.2629,-0.263,0,0,0,0,0,0,0,0,0,0,0,0,0,-0.2513,-0.2475,-0.2569,-0.2579,-0.258,-0.2615,-0.2615,-0.2616,-0.2616,-0.2616,-0.2616,-0.2615,-0.2628,-0.2629,-0.263,-0.2645,0,0,-0.2633,-0.2634,0,0,0,0,0,0,0,0,-0.2511,-0.2516,-0.2576,-0.2578,-0.258,-0.2612,-0.2586,-0.2625,-0.2617,-0.26,-0.2615,-0.2615,-0.2623,-0.2624,-0.263,-0.2646,-0.2646,-0.2633,-0.2634,-0.2634,-0.2635,0,0,0,0,0,0,0,-0.2508,-0.2514,-0.2584,-0.2578,-0.258,-0.2578,-0.2583,-0.2593,-0.261,-0.2601,-0.2602,-0.2612,-0.2623,-0.2629,-0.263,-0.2646,-0.2633,-0.2634,-0.2635,-0.2635,-0.2676,-0.2677,0,0,0,0,0,0,-0.251,-0.2512,-0.2583,-0.2586,-0.2547,-0.258,-0.2585,-0.26,-0.2611,-0.2613,-0.2612,-0.2612,-0.2627,-0.2629,-0.263,-0.2658,-0.2634,-0.2635,-0.2636,-0.2676,-0.2676,-0.2677,0,0,0,0,0,0,-0.2508,-0.2516,-0.2581,-0.2552,-0.256,-0.2582,-0.2598,-0.2601,-0.2611,-0.262,-0.2621,-0.262,-0.2627,-0.2629,-0.2643,-0.2658,-0.2636,-0.2636,-0.2675,-0.2676,-0.2677,-0.2708,0,0,0,0,0,0,-0.2505,-0.2515,-0.2523,-0.2552,-0.2562,-0.2607,-0.2599,-0.2602,-0.2619,-0.2619,-0.2627,-0.2628,-0.2627,-0.2642,-0.2644,-0.2659,-0.2637,-0.2674,-0.2675,-0.2676,-0.2706,-0.271,-0.2712,0,0,0,0,0,-0.2501,-0.2517,-0.2523,-0.2532,-0.2574,-0.2608,-0.2613,-0.2625,-0.262,-0.263,-0.2632,-0.2628,-0.265,-0.2643,-0.2646,-0.2662,-0.2674,-0.2675,-0.2676,-0.2705,-0.2709,-0.2712,0,0,0,0,0,0,-0.2477,-0.2519,-0.2527,-0.2554,-0.2582,-0.261,-0.262,-0.2629,-0.2639,-0.2637,-0.2637,-0.2639,-0.2657,-0.2654,-0.2647,-0.2675,-0.266,-0.2662,-0.2681,-0.2685,-0.2688,-0.2687,-0.2638,0,0,0,0,0,-0.2477,-0.2498,-0.2538,-0.2557,-0.2572,-0.2596,-0.261,-0.2623,-0.2639,-0.2643,-0.265,-0.2655,-0.2665,-0.267,-0.2678,-0.2695,-0.2677,-0.2705,-0.2709,-0.2711,-0.2712,-0.2696,-0.2698,-0.2681,-0.2681,-0.2681,0,0,-0.247,-0.2497,-0.2507,-0.2552,-0.2571,-0.2604,-0.2602,-0.263,-0.2654,-0.2643,-0.2668,-0.2669,-0.2672,-0.2691,-0.2699,-0.269,-0.2706,-0.2713,-0.2715,-0.2714,-0.2698,-0.2699,-0.2701,-0.2681,-0.2681,-0.2681,0,0,-0.2471,-0.2494,-0.2514,-0.2545,-0.2586,-0.2607,-0.2618,-0.2653,-0.2664,-0.2691,-0.2687,-0.2695,-0.2714,-0.2717,-0.2721,-0.2746,-0.2725,-0.275,-0.2766,-0.2751,-0.2752,-0.2753,-0.2728,-0.2726,-0.275,-0.275,-0.275,0,-0.2459,-0.2495,-0.2523,-0.2558,-0.2582,-0.261,-0.264,-0.2664,-0.2698,-0.2705,-0.2702,-0.2722,-0.2726,-0.2743,-0.2753,-0.2754,-0.2737,-0.2752,-0.2755,-0.2755,-0.2755,-0.273,-0.2727,-0.2752,-0.2752,-0.2752,-0.2751,0,-0.2482,-0.2513,-0.2528,-0.258,-0.2611,-0.264,-0.2685,-0.2709,-0.2722,-0.274,-0.2759,-0.2762,-0.2769,-0.2776,-0.2775,-0.2784,-0.2767,-0.2761,-0.2744,-0.2759,-0.2731,-0.2728,-0.2754,-0.2754,-0.2753,-0.2753,0,0,-0.2438,-0.2525,-0.2528,-0.2557,-0.2625,-0.265,-0.2696,-0.2736,-0.2757,-0.278,-0.2797,-0.2814,-0.2807,-0.281,-0.2807,-0.28,-0.2789,-0.2784,-0.2783,-0.2758,-0.2746,-0.2659,-0.2647,-0.2782,-0.2782,-0.2782,-0.2724,0,-0.244,-0.2501,-0.2546,-0.2597,-0.2631,-0.2679,-0.272,-0.2761,-0.2786,-0.2813,-0.2816,-0.2831,-0.2823,-0.2824,-0.2818,-0.2806,-0.2783,-0.2805,-0.2737,-0.2734,-0.2654,-0.2642,-0.2464,-0.2391,-0.2721,-0.272,-0.272,0,-0.2439,-0.2483,-0.2533,-0.2609,-0.2627,-0.2662,-0.2719,-0.276,-0.2809,-0.2828,-0.2841,-0.2847,-0.2854,-0.2838,-0.2808,-0.2822,-0.2782,-0.2763,-0.276,-0.2665,-0.2642,-0.243,-0.2373,-0.2714,-0.2715,-0.2715,-0.2716,0,-0.2382,-0.2467,-0.2501,-0.253,-0.2625,-0.2648,-0.269,-0.2751,-0.2779,-0.2828,-0.2843,-0.2858,-0.2853,-0.2827,-0.279,-0.2799,-0.2742,-0.2748,-0.2624,-0.2618,-0.2445,-0.2423,-0.2701,-0.2701,-0.2701,-0.2701,-0.2701,0,-0.236,-0.2385,-0.2478,-0.2498,-0.2534,-0.2615,-0.2648,-0.2698,-0.2761,-0.2782,-0.2833,-0.2838,-0.2848,-0.2822,-0.279,-0.2691,-0.2734,-0.2617,-0.2593,-0.2451,-0.2431,-0.2699,-0.2699,-0.2699,-0.2699,-0.27,-0.27,0,-0.2282,-0.2349,-0.239,-0.2482,-0.2508,-0.2528,-0.2612,-0.2635,-0.2711,-0.274,-0.2754,-0.2812,-0.2778,-0.2763,-0.2717,-0.2667,-0.2602,-0.2547,-0.2376,-0.2333,-0.249,-0.2493,-0.2413,-0.241,-0.2407,-0.2404,-0.2402,0,-0.2244,-0.2261,-0.2348,-0.2363,-0.2398,-0.2448,-0.2479,-0.2584,-0.2616,-0.2708,-0.271,-0.2713,-0.2672,-0.2585,-0.2503,-0.2406,-0.2491,-0.2195,-0.2179,-0.2473,-0.2459,-0.2467,-0.2474,-0.1963,-0.1957,-0.1953,-0.1949,0,-0.2155,-0.2186,-0.2214,-0.2256,-0.2288,-0.2324,-0.2383,-0.2406,-0.2522,-0.2544,-0.2559,-0.2536,-0.2472,-0.2297,-0.2194,-0.2125,-0.2206,-0.2098,-0.2432,-0.207,-0.2045,-0.2033,-0.2055,-0.1908,-0.1913,-0.1915,-0.1918,-0.1919,-0.2062,-0.2059,-0.2098,-0.2119,-0.2158,-0.217,-0.2145,-0.222,-0.2234,-0.2235,-0.2329,-0.2226,-0.2222,-0.1955,-0.185,-0.1772,-0.192,-0.1847,-0.1863,-0.1882,-0.1847,-0.1819,-0.1633,-0.1635,-0.1637,-0.1639,-0.164,0,-0.1937,-0.1949,-0.196,-0.1977,-0.1952,-0.2023,-0.2049,-0.1989,-0.1942,-0.1981,-0.1946,-0.1734,-0.1624,-0.1618,-0.1428,-0.1395,-0.1395,-0.1345,-0.1351,-0.1392,-0.1428,-0.1371,-0.1029,-0.1027,-0.1026,-0.1024,0,0,-0.1871,-0.1831,-0.1838,-0.1755,-0.1762,-0.1669,-0.1641,-0.1575,-0.1557,-0.1451,-0.1401,-0.1518,-0.1563,-0.1293,-0.1236,-0.1097,-0.1231,-0.1043,-0.1533,-0.1579,-0.1613,-0.1717,-0.1675,0,0,0,0,0]},{"header":{"parameterUnit":"m.s-1","parameterCategory":2,"la1":30.2991,"la2":30.254,"lo1":-89.0895,"lo2":-89.0444,"dy":0.0017,"dx":0.0017,"nx":28,"ny":28,"refTime":"2024-04-01T03:00:00:Z","depth":"2","parameterNumber":3,"parameterNumberName":"V-component_of_CURRENTS"},"data":[0,0,0,0,0,0,0,0,0,0,0,0,0,0,0,0,0,0,0,0,0,0,0,0,0,0,0,0,0,0,0,0,0,0,0,0,0,0,0,0,0,0,0,0,0,0,0,0,0,0,0,0,0,0,0,0,0,0,-0.0281,-0.028,0,-0.0194,-0.0193,-0.0192,-0.0129,-0.0128,-0.0128,-0.0128,0.0002,0.0005,0.0008,0,0,0,0,0,0,0,0,0,0,0,0,0,-0.0333,-0.0333,-0.0281,-0.028,-0.0279,-0.0194,-0.0193,-0.0192,-0.0129,-0.0128,-0.0128,-0.0127,0.0001,0.0004,0.0008,0,0,0,0,0,0,0,0,0,0,0,0,0,-0.0284,-0.0333,-0.0281,-0.0238,-0.0234,-0.0194,-0.0193,-0.0191,-0.0129,-0.0128,-0.0128,-0.0127,-0.0001,0.0004,0.0008,0.0024,0,0,0.0022,0.0024,0,0,0,0,0,0,0,0,-0.0287,-0.0282,-0.0245,-0.0241,-0.0236,-0.0173,-0.0164,-0.0118,-0.0129,-0.0167,-0.0128,-0.0127,-0.0054,-0.0045,-0.0029,0.003,0.0035,0.0023,0.0025,0.0027,0.0029,0,0,0,0,0,0,0,-0.029,-0.0285,-0.0245,-0.0244,-0.0239,-0.0203,-0.0196,-0.0155,-0.0114,-0.0164,-0.016,-0.0152,-0.0051,-0.0034,-0.0025,0.0037,0.0023,0.0027,0.0029,0.0031,0.0127,0.0127,0,0,0,0,0,0,-0.0307,-0.0289,-0.0248,-0.0243,-0.0262,-0.0203,-0.0195,-0.0193,-0.0115,-0.0103,-0.0153,-0.0149,-0.0042,-0.0031,-0.0021,0.0009,0.0027,0.0032,0.0034,0.0127,0.0127,0.0127,0,0,0,0,0,0,-0.0309,-0.0305,-0.0251,-0.0264,-0.0255,-0.0203,-0.0201,-0.0191,-0.0173,-0.0107,-0.0094,-0.0144,-0.0041,-0.0027,0.0014,0.0014,0.0034,0.0038,0.0128,0.0127,0.0127,0.0063,0,0,0,0,0,0,-0.0311,-0.0306,-0.0312,-0.0266,-0.0255,-0.0237,-0.0201,-0.019,-0.0169,-0.0164,-0.0095,-0.0083,-0.0039,0.0007,0.0018,0.0021,0.0041,0.0128,0.0128,0.0127,0.0065,0.0061,0.0057,0,0,0,0,0,-0.0313,-0.0327,-0.0313,-0.0308,-0.0265,-0.0238,-0.0229,-0.0189,-0.017,-0.0168,-0.0119,-0.0085,0.0013,0.001,0.0024,0.0027,0.0128,0.0128,0.0127,0.0067,0.0062,0.0057,0,0,0,0,0,0,-0.0354,-0.032,-0.0305,-0.0308,-0.0279,-0.0228,-0.0224,-0.0195,-0.0155,-0.0149,-0.0085,-0.007,-0.0036,0.0003,-0.0002,0.0053,0.0076,0.0078,0.0025,0.0021,0.0016,0.0004,0.0045,0,0,0,0,0,-0.0367,-0.0369,-0.0328,-0.0332,-0.0321,-0.0274,-0.0258,-0.0231,-0.0189,-0.0171,-0.0123,-0.0071,-0.0028,0.0001,0.0041,0.0074,0.0118,0.0085,0.008,0.0076,0.0076,0.014,0.0141,0.0126,0.0126,0.0126,0,0,-0.0384,-0.0367,-0.0366,-0.0341,-0.0315,-0.0306,-0.0262,-0.0245,-0.0232,-0.0163,-0.0134,-0.0088,-0.0025,0.001,0.0029,0.0044,0.0102,0.0076,0.0072,0.0074,0.014,0.0141,0.0143,0.0125,0.0125,0.0125,0,0,-0.0421,-0.0403,-0.0418,-0.0397,-0.0367,-0.0335,-0.0334,-0.0287,-0.026,-0.0228,-0.0175,-0.0129,-0.0066,-0.0016,0.0017,0.0014,0.0071,0.0023,0.0001,0.0062,0.0064,0.0066,0.0118,0.0125,0.0027,0.0027,0.0027,0,-0.0443,-0.0455,-0.0417,-0.0423,-0.041,-0.0353,-0.0361,-0.0325,-0.027,-0.0246,-0.0229,-0.0126,-0.0076,-0.0018,-0.002,0.0005,0.0044,0.0014,0.0056,0.006,0.0063,0.0115,0.0124,0.0024,0.0024,0.0025,0.0025,0,-0.0487,-0.0494,-0.0501,-0.0488,-0.0468,-0.0466,-0.0413,-0.039,-0.0352,-0.0307,-0.025,-0.0178,-0.0113,-0.0091,-0.0054,-0.0005,0.0015,0.0037,0.0068,0.0061,0.0116,0.0127,0.002,0.0021,0.0022,0.0022,0,0,-0.0541,-0.0535,-0.0537,-0.0544,-0.0503,-0.0493,-0.0468,-0.0427,-0.0407,-0.0343,-0.0306,-0.0226,-0.0179,-0.0139,-0.0081,-0.0024,0.0032,0.0011,0.0015,0.0057,0.0162,0.0195,0.0211,0.006,0.0062,0.0063,0.0188,0,-0.0588,-0.0623,-0.0597,-0.0617,-0.0628,-0.0568,-0.0549,-0.0498,-0.0443,-0.0393,-0.0299,-0.0247,-0.0198,-0.0168,-0.0102,0.0,0.0057,-0.0005,0.0166,0.0171,0.02,0.0223,0.0189,0.0299,0.0199,0.0201,0.0202,0,-0.0637,-0.0656,-0.0692,-0.0685,-0.0683,-0.0679,-0.0634,-0.061,-0.0517,-0.0471,-0.0391,-0.0315,-0.0214,-0.0179,-0.0003,-0.0045,0.0047,0.0126,0.0133,0.0196,0.0225,0.0293,0.0323,0.022,0.0219,0.0217,0.0216,0,-0.0699,-0.0717,-0.0752,-0.0749,-0.0731,-0.0729,-0.0711,-0.0637,-0.0613,-0.0518,-0.0483,-0.0352,-0.0282,-0.0147,0.0021,0.001,0.0215,0.0223,0.0342,0.0345,0.0366,0.0369,0.034,0.034,0.034,0.034,0.0339,0,-0.0759,-0.0785,-0.0788,-0.0808,-0.084,-0.0795,-0.0801,-0.0759,-0.0688,-0.0654,-0.0532,-0.0466,-0.0271,-0.0126,0.0015,0.022,0.0217,0.0347,0.0386,0.0342,0.0341,0.0311,0.0306,0.0344,0.0343,0.0342,0.0342,0,-0.082,-0.0823,-0.0866,-0.0871,-0.0875,-0.0897,-0.0877,-0.0874,-0.0796,-0.0745,-0.0717,-0.0541,-0.0344,-0.0143,0.0093,0.0215,0.0401,0.0468,0.04,0.0429,0.0487,0.0477,0.0613,0.0616,0.0618,0.0619,0.0621,0,-0.0856,-0.0886,-0.0925,-0.0958,-0.0966,-0.0987,-0.0999,-0.094,-0.0921,-0.0783,-0.0757,-0.056,-0.0396,-0.0035,0.0214,0.0478,0.0467,0.0583,0.056,0.0494,0.0519,0.0505,0.0493,0.0561,0.0562,0.0562,0.0563,0,-0.0921,-0.0933,-0.097,-0.1043,-0.1077,-0.1107,-0.1109,-0.1106,-0.1016,-0.0936,-0.0785,-0.0642,-0.029,0.0017,0.0349,0.0487,0.0539,0.0606,0.0578,0.0491,0.0454,0.0474,0.0463,0.0569,0.0568,0.0568,0.0567,0.0567,-0.0961,-0.1009,-0.1059,-0.1121,-0.1167,-0.1202,-0.1209,-0.1169,-0.1112,-0.0954,-0.0817,-0.0562,-0.0278,0.0212,0.0445,0.0645,0.0634,0.0677,0.0671,0.0665,0.0632,0.0599,0.0735,0.0735,0.0735,0.0736,0.0736,0,-0.1009,-0.1061,-0.1131,-0.1202,-0.1256,-0.1258,-0.126,-0.1222,-0.113,-0.0946,-0.0757,-0.0435,-0.0079,0.0207,0.0545,0.0744,0.071,0.0755,0.0678,0.0671,0.0665,0.0628,0.0732,0.0733,0.0734,0.0734,0,0,-0.1036,-0.1113,-0.1152,-0.1252,-0.1299,-0.133,-0.132,-0.123,-0.1087,-0.0889,-0.0684,-0.0408,-0.0057,0.0184,0.0428,0.0601,0.0579,0.0601,0.0581,0.0454,0.0446,0.0596,0.0529,0,0,0,0,0]}],[{"header":{"parameterUnit":"m.s-1","parameterCategory":2,"la1":30.2991,"la2":30.254,"lo1":-89.0895,"lo2":-89.0444,"dy":0.0017,"dx":0.0017,"nx":28,"ny":28,"refTime":"2024-04-01T03:00:00:Z","depth":"4","parameterNumber":2,"parameterNumberName":"U-component_of_CURRENTS"},"data":[0,0,0,0,0,0,0,0,0,0,0,0,0,0,0,0,0,0,0,0,0,0,0,0,0,0,0,0,0,0,0,0,0,0,0,0,0,0,0,0,0,0,0,0,0,0,0,0,0,0,0,0,0,0,0,0,0,0,-0.1795,-0.1796,0,-0.1874,-0.1875,-0.1876,-0.1931,-0.1931,-0.1932,-0.1933,-0.2023,-0.2024,-0.2026,0,0,0,0,0,0,0,0,0,0,0,0,0,-0.1684,-0.1685,-0.1795,-0.1796,-0.1797,-0.1874,-0.1875,-0.1876,-0.1931,-0.1931,-0.1932,-0.1933,-0.2022,-0.2024,-0.2026,0,0,0,0,0,0,0,0,0,0,0,0,0,-0.1742,-0.1686,-0.1795,-0.1835,-0.184,-0.1874,-0.1875,-0.1876,-0.1931,-0.1931,-0.1932,-0.1933,-0.2021,-0.2024,-0.2027,-0.2026,0,0,-0.2035,-0.2036,0,0,0,0,0,0,0,0,-0.1739,-0.1746,-0.1828,-0.1833,-0.1838,-0.1895,-0.1869,-0.1927,-0.193,-0.1894,-0.1933,-0.1934,-0.1982,-0.1988,-0.1998,-0.203,-0.2034,-0.2035,-0.2037,-0.2038,-0.2039,0,0,0,0,0,0,0,-0.1735,-0.1743,-0.1824,-0.1829,-0.1835,-0.1847,-0.1856,-0.188,-0.193,-0.1897,-0.1902,-0.1914,-0.1984,-0.1995,-0.2,-0.2035,-0.2035,-0.2038,-0.2039,-0.204,-0.2147,-0.2148,0,0,0,0,0,0,-0.1729,-0.1739,-0.1822,-0.1827,-0.1792,-0.1849,-0.1859,-0.1874,-0.193,-0.194,-0.1913,-0.1916,-0.199,-0.1997,-0.2004,-0.2084,-0.2038,-0.2041,-0.2042,-0.2146,-0.2147,-0.2149,0,0,0,0,0,0,-0.1726,-0.1735,-0.1819,-0.1786,-0.1798,-0.185,-0.1867,-0.1875,-0.192,-0.1942,-0.1952,-0.1952,-0.1991,-0.2,-0.2052,-0.2085,-0.2042,-0.2044,-0.2145,-0.2146,-0.2148,-0.2194,0,0,0,0,0,0,-0.1722,-0.1734,-0.1757,-0.1786,-0.18,-0.1861,-0.1866,-0.1876,-0.1924,-0.193,-0.1978,-0.1986,-0.1992,-0.2048,-0.2055,-0.2088,-0.2047,-0.2143,-0.2145,-0.2148,-0.2191,-0.2197,-0.2202,0,0,0,0,0,-0.1718,-0.1742,-0.1758,-0.1769,-0.1825,-0.1862,-0.1871,-0.1908,-0.1926,-0.195,-0.1983,-0.1986,-0.2067,-0.2052,-0.2059,-0.2093,-0.2142,-0.2145,-0.2147,-0.2188,-0.2196,-0.2202,0,0,0,0,0,0,-0.1707,-0.1751,-0.1769,-0.1806,-0.1842,-0.1873,-0.1902,-0.1926,-0.1971,-0.1986,-0.2003,-0.2013,-0.2071,-0.2074,-0.2057,-0.213,-0.2104,-0.2108,-0.2133,-0.214,-0.2145,-0.2142,-0.2049,0,0,0,0,0,-0.1714,-0.1745,-0.1784,-0.1816,-0.1837,-0.1875,-0.1901,-0.1928,-0.1964,-0.1987,-0.2021,-0.2053,-0.2081,-0.2106,-0.213,-0.2173,-0.2154,-0.2198,-0.2204,-0.2209,-0.2211,-0.2209,-0.2214,-0.2157,-0.2157,-0.2157,0,0,-0.1719,-0.1747,-0.1766,-0.1817,-0.1848,-0.1886,-0.1894,-0.1943,-0.1983,-0.1988,-0.206,-0.2079,-0.2097,-0.2144,-0.217,-0.2157,-0.2214,-0.2212,-0.2216,-0.2216,-0.2212,-0.2218,-0.2222,-0.2159,-0.2159,-0.2159,0,0,-0.1732,-0.177,-0.1798,-0.1834,-0.1889,-0.1914,-0.1935,-0.1987,-0.2022,-0.2081,-0.2094,-0.2132,-0.2185,-0.2199,-0.2212,-0.2263,-0.2244,-0.2278,-0.2308,-0.2306,-0.2311,-0.2314,-0.229,-0.2291,-0.2281,-0.2281,-0.2281,0,-0.1738,-0.1779,-0.1812,-0.185,-0.1885,-0.193,-0.197,-0.201,-0.2075,-0.2102,-0.2115,-0.2186,-0.2208,-0.2249,-0.2271,-0.2277,-0.2264,-0.2281,-0.2313,-0.2316,-0.2319,-0.2293,-0.2293,-0.2284,-0.2283,-0.2283,-0.2283,0,-0.1763,-0.1812,-0.1833,-0.1895,-0.1936,-0.198,-0.2035,-0.2086,-0.2132,-0.2164,-0.2227,-0.2252,-0.2289,-0.2305,-0.2309,-0.2346,-0.2325,-0.2318,-0.2292,-0.2327,-0.2297,-0.2297,-0.2287,-0.2286,-0.2286,-0.2285,0,0,-0.1732,-0.1831,-0.1842,-0.1882,-0.1966,-0.1999,-0.2071,-0.2135,-0.218,-0.224,-0.2288,-0.2339,-0.2349,-0.2363,-0.2371,-0.2378,-0.239,-0.2365,-0.2364,-0.2336,-0.2371,-0.2215,-0.2199,-0.2391,-0.2391,-0.2392,-0.2339,0,-0.1743,-0.1816,-0.1866,-0.1944,-0.1985,-0.2054,-0.2113,-0.218,-0.2234,-0.2292,-0.2322,-0.237,-0.2372,-0.2393,-0.2403,-0.2401,-0.2393,-0.2404,-0.2347,-0.2344,-0.2197,-0.2195,-0.2393,-0.2338,-0.2338,-0.2338,-0.2338,0,-0.1742,-0.1796,-0.1872,-0.1972,-0.1997,-0.2054,-0.2149,-0.2208,-0.2291,-0.2333,-0.2379,-0.2402,-0.2438,-0.2428,-0.2427,-0.2436,-0.2408,-0.2394,-0.2391,-0.2227,-0.2187,-0.2299,-0.2337,-0.2337,-0.2337,-0.2337,-0.2337,0,-0.1687,-0.1795,-0.1857,-0.1894,-0.2013,-0.2065,-0.2129,-0.2221,-0.2266,-0.2355,-0.2385,-0.2432,-0.2451,-0.2442,-0.2419,-0.243,-0.2394,-0.2399,-0.2223,-0.2211,-0.235,-0.2347,-0.2378,-0.2378,-0.2378,-0.2378,-0.2378,0,-0.1659,-0.1712,-0.1844,-0.1877,-0.1951,-0.2046,-0.2121,-0.2192,-0.2281,-0.2316,-0.2396,-0.2408,-0.2457,-0.2443,-0.2421,-0.2306,-0.2389,-0.2216,-0.2184,-0.237,-0.237,-0.2349,-0.2346,-0.2376,-0.2376,-0.2377,-0.2377,0,-0.158,-0.1671,-0.1747,-0.1883,-0.1928,-0.1979,-0.2106,-0.2145,-0.2248,-0.2294,-0.232,-0.2392,-0.2365,-0.2373,-0.2349,-0.2277,-0.2207,-0.2142,-0.2324,-0.2306,-0.2027,-0.2028,-0.194,-0.1934,-0.1929,-0.1925,-0.1921,0,-0.154,-0.1576,-0.1726,-0.1768,-0.1834,-0.1928,-0.198,-0.2109,-0.2144,-0.2253,-0.225,-0.2273,-0.2294,-0.2116,-0.2162,-0.208,-0.2055,-0.201,-0.2032,-0.2002,-0.1981,-0.199,-0.1998,-0.1913,-0.1912,-0.191,-0.1909,0,-0.1455,-0.1525,-0.1584,-0.1673,-0.1744,-0.1807,-0.1895,-0.1904,-0.2031,-0.2147,-0.2102,-0.2071,-0.2029,-0.1996,-0.1934,-0.1888,-0.2043,-0.1956,-0.1967,-0.1988,-0.1968,-0.1954,-0.1968,-0.1891,-0.1894,-0.1895,-0.1897,0,-0.1384,-0.1403,-0.149,-0.1549,-0.1632,-0.165,-0.1719,-0.1748,-0.1795,-0.1925,-0.1902,-0.1928,-0.1999,-0.1893,-0.1847,-0.1777,-0.1756,-0.1708,-0.1731,-0.1752,-0.1715,-0.1665,-0.1451,0,0,0,0,0,-0.1305,-0.1309,-0.1355,-0.1411,-0.1486,-0.1526,-0.1641,-0.1712,-0.184,-0.175,-0.182,-0.1769,-0.1695,-0.1719,-0.1602,-0.1766,-0.1768,-0.1626,-0.1728,-0.1793,-0.1813,-0.1788,0,0,0,0,0,0,-0.125,-0.129,-0.1304,-0.1273,-0.1279,-0.1338,-0.1397,-0.1489,-0.1456,-0.1589,-0.1548,-0.1653,-0.1598,-0.1709,-0.1556,-0.1563,-0.1589,-0.1659,-0.1654,-0.1781,-0.18,-0.1816,-0.1798,0,0,0,0,0]},{"header":{"parameterUnit":"m.s-1","parameterCategory":2,"la1":30.2991,"la2":30.254,"lo1":-89.0895,"lo2":-89.0444,"dy":0.0017,"dx":0.0017,"nx":28,"ny":28,"refTime":"2024-04-01T03:00:00:Z","depth":"4","parameterNumber":3,"parameterNumberName":"V-component_of_CURRENTS"},"data":[0,0,0,0,0,0,0,0,0,0,0,0,0,0,0,0,0,0,0,0,0,0,0,0,0,0,0,0,0,0,0,0,0,0,0,0,0,0,0,0,0,0,0,0,0,0,0,0,0,0,0,0,0,0,0,0,0,0,-0.0248,-0.0248,0,-0.0193,-0.0193,-0.0192,-0.0154,-0.0153,-0.0153,-0.0153,-0.0056,-0.0054,-0.0052,0,0,0,0,0,0,0,0,0,0,0,0,0,-0.0274,-0.0274,-0.0248,-0.0248,-0.0247,-0.0194,-0.0193,-0.0192,-0.0154,-0.0153,-0.0153,-0.0153,-0.0057,-0.0054,-0.0051,0,0,0,0,0,0,0,0,0,0,0,0,0,-0.0244,-0.0274,-0.0248,-0.0223,-0.022,-0.0194,-0.0193,-0.0192,-0.0154,-0.0153,-0.0153,-0.0153,-0.0058,-0.0054,-0.0051,-0.0034,0,0,-0.004,-0.0038,0,0,0,0,0,0,0,0,-0.0246,-0.0243,-0.0227,-0.0224,-0.0221,-0.0181,-0.0166,-0.0137,-0.0154,-0.0177,-0.0153,-0.0153,-0.0095,-0.0088,-0.0078,-0.003,-0.0026,-0.004,-0.0037,-0.0036,-0.0035,0,0,0,0,0,0,0,-0.0248,-0.0245,-0.0225,-0.0226,-0.0223,-0.0198,-0.0194,-0.016,-0.0137,-0.0175,-0.0173,-0.0169,-0.0093,-0.0081,-0.0075,-0.0024,-0.004,-0.0036,-0.0034,-0.0033,0.0045,0.0045,0,0,0,0,0,0,-0.026,-0.0247,-0.0227,-0.0224,-0.0235,-0.0198,-0.0193,-0.0193,-0.0138,-0.013,-0.0169,-0.0167,-0.0087,-0.0079,-0.0071,-0.0049,-0.0036,-0.0032,-0.003,0.0045,0.0045,0.0045,0,0,0,0,0,0,-0.0261,-0.0259,-0.0229,-0.0235,-0.023,-0.0198,-0.0198,-0.0192,-0.0182,-0.0134,-0.0125,-0.0165,-0.0087,-0.0076,-0.0046,-0.0045,-0.0031,-0.0028,0.0045,0.0045,0.0045,-0.0003,0,0,0,0,0,0,-0.0262,-0.026,-0.0267,-0.0236,-0.023,-0.0222,-0.0199,-0.0192,-0.018,-0.0178,-0.0128,-0.0118,-0.0086,-0.0052,-0.0043,-0.0039,-0.0025,0.0045,0.0045,0.0045,-0.0001,-0.0005,-0.0008,0,0,0,0,0,-0.0263,-0.0276,-0.0268,-0.0266,-0.024,-0.0223,-0.0218,-0.0193,-0.0181,-0.0181,-0.0146,-0.012,-0.0046,-0.0049,-0.0038,-0.0034,0.0046,0.0045,0.0045,0.0,-0.0004,-0.0008,0,0,0,0,0,0,-0.0291,-0.0272,-0.0263,-0.0269,-0.0252,-0.0217,-0.0217,-0.0198,-0.0171,-0.0168,-0.012,-0.0108,-0.0084,-0.0053,-0.0057,-0.0012,0.0004,0.0006,-0.0034,-0.0038,-0.0041,-0.0049,-0.0022,0,0,0,0,0,-0.0301,-0.0306,-0.0281,-0.0287,-0.0281,-0.025,-0.0241,-0.0224,-0.0195,-0.0183,-0.0148,-0.011,-0.0076,-0.0053,-0.0024,0.0005,0.0041,0.0014,0.0011,0.0008,0.0008,0.0068,0.007,0.0044,0.0044,0.0044,0,0,-0.0314,-0.0305,-0.0307,-0.0294,-0.0278,-0.0274,-0.0244,-0.0235,-0.0227,-0.0176,-0.0158,-0.0124,-0.0073,-0.0047,-0.0032,-0.0019,0.0032,0.0008,0.0005,0.0007,0.0068,0.007,0.0073,0.0044,0.0044,0.0044,0,0,-0.0342,-0.0334,-0.0347,-0.0335,-0.0318,-0.0297,-0.0298,-0.0267,-0.025,-0.0228,-0.019,-0.0153,-0.0107,-0.0065,-0.0038,-0.0039,0.0007,-0.0033,-0.0046,0.0011,0.0014,0.0017,0.0057,0.0064,-0.0027,-0.0027,-0.0027,0,-0.0359,-0.0371,-0.0348,-0.0355,-0.0349,-0.0312,-0.0319,-0.0295,-0.0258,-0.0241,-0.0232,-0.0152,-0.0112,-0.0062,-0.0064,-0.0045,-0.0012,-0.0037,0.0007,0.0011,0.0015,0.0055,0.0064,-0.0029,-0.0029,-0.0029,-0.0029,0,-0.0391,-0.0402,-0.0408,-0.0404,-0.0393,-0.0395,-0.036,-0.0346,-0.0321,-0.0289,-0.0245,-0.0189,-0.0137,-0.012,-0.0091,-0.0044,-0.0031,-0.001,0.0016,0.0015,0.0057,0.0066,-0.0033,-0.0032,-0.0031,-0.0031,0,0,-0.0427,-0.0432,-0.0435,-0.0444,-0.042,-0.0416,-0.0401,-0.0372,-0.0359,-0.0313,-0.0285,-0.0221,-0.0184,-0.0151,-0.0105,-0.0052,-0.0,-0.0024,-0.002,0.0012,0.0116,0.0097,0.0106,0.0029,0.003,0.0031,0.0131,0,-0.0461,-0.0492,-0.0478,-0.05,-0.051,-0.0472,-0.0461,-0.0426,-0.0388,-0.0351,-0.0275,-0.0236,-0.0196,-0.0174,-0.0112,-0.0029,0.0024,-0.003,0.0115,0.0119,0.0101,0.0117,0.0036,0.0138,0.014,0.0142,0.0143,0,-0.0494,-0.0512,-0.0546,-0.055,-0.055,-0.0555,-0.0528,-0.0514,-0.0444,-0.041,-0.0346,-0.0287,-0.0201,-0.0173,-0.0021,-0.0058,0.0021,0.0087,0.0093,0.0101,0.0118,0.0144,0.0161,0.0159,0.0158,0.0157,0.0156,0,-0.0531,-0.0556,-0.0589,-0.059,-0.0588,-0.0594,-0.0588,-0.0536,-0.0521,-0.0449,-0.0423,-0.0312,-0.0256,-0.0139,-0.0004,-0.001,0.0161,0.0174,0.0234,0.0233,0.0241,0.0237,0.028,0.028,0.028,0.0279,0.0279,0,-0.0566,-0.0592,-0.0616,-0.0634,-0.067,-0.0644,-0.066,-0.0631,-0.0583,-0.0559,-0.0463,-0.0412,-0.0244,-0.0127,-0.0008,0.0141,0.0164,0.0234,0.0262,0.0216,0.0208,0.0247,0.0242,0.0283,0.0282,0.0282,0.0281,0,-0.0597,-0.0613,-0.0657,-0.0681,-0.0693,-0.0719,-0.0725,-0.0726,-0.0674,-0.0638,-0.0618,-0.0477,-0.0322,-0.0157,0.0043,0.0129,0.0273,0.032,0.0249,0.0271,0.0306,0.0297,0.0394,0.0395,0.0395,0.0395,0.0395,0,-0.0613,-0.0642,-0.0703,-0.074,-0.0759,-0.0793,-0.0814,-0.078,-0.0768,-0.0673,-0.0651,-0.0503,-0.0394,-0.0118,0.0045,0.0269,0.0297,0.0362,0.0342,0.0303,0.0321,0.0311,0.0303,0.0396,0.0396,0.0396,0.0396,0,-0.0645,-0.0674,-0.0712,-0.0794,-0.084,-0.0878,-0.0897,-0.089,-0.0832,-0.0793,-0.0656,-0.0504,-0.0328,-0.0117,0.0056,0.0215,0.0314,0.0365,0.0366,0.0347,0.0306,0.0321,0.0312,0.0397,0.0397,0.0397,0.0396,0,-0.0667,-0.0708,-0.0768,-0.0832,-0.0899,-0.0934,-0.094,-0.09,-0.0872,-0.0751,-0.0708,-0.0506,-0.0381,-0.0145,0.0015,0.0168,0.0202,0.0241,0.0249,0.0249,0.0173,0.0096,0.0152,0,0,0,0,0,-0.068,-0.0728,-0.0798,-0.0868,-0.0935,-0.0965,-0.0978,-0.0964,-0.0908,-0.0816,-0.0752,-0.0581,-0.0317,-0.0198,-0.0046,-0.0004,0.0205,0.0174,0.0248,0.0401,0.04,0.0333,0,0,0,0,0,0,-0.0691,-0.0761,-0.0797,-0.0879,-0.093,-0.099,-0.0997,-0.0961,-0.0889,-0.0812,-0.0664,-0.0566,-0.0309,-0.0404,-0.005,-0.0004,0.0059,0.0305,0.0308,0.0402,0.0401,0.04,0.0331,0,0,0,0,0]}]]